Back to catalog

STARLINK-4466

AliveCommunicationsSSO
NORAD 53656·PAYLOAD·🇺🇸 United States

Launched Aug 31, 2022 from Vandenberg Space Force Base

Loading…

Next Passes (next 24 hours)

TLE

FreshSource: CelesTrak SupGP

Epoch: Sep 14, 2026, 13:41 UTC

1 53656C 22105J   26257.57062500  .00062103  00000+0  43122-2 0  2574
2 53656  97.2844 131.7100 0001756  67.7699 143.4641 15.05622323    10

Track STARLINK-4466 in real time with AllMySat

Download on the App Store